Warsaw, IN

5:23 AM EST on January 20, 2018 (GMT -0500)
Warsaw Municipal

Weather History for KASW - January, 2014

Change the Weather History Date:

Friday, January 10, 2014

  Actual Average Record
Temperature  
Mean Temperature 34 °F -  
Max Temperature 41 °F 27 °F 57 °F (1950)
Min Temperature 28 °F 11 °F -25 °F (1982)
Degree Days  
Heating Degree Days 30    
Moisture  
Dew Point 34 °F    
Average Humidity 97    
Maximum Humidity 100    
Minimum Humidity 87    
Precipitation  
Precipitation 0.32 in - - ()
Sea Level Pressure  
Sea Level Pressure 29.98 in    
Wind  
Wind Speed 5 mph (SSE)    
Max Wind Speed 12 mph    
Max Gust Speed 22 mph    
Visibility 4 miles    
Events Fog , Rain , Snow    
Averages and records for this station are not official NWS values.
T = Trace of Precipitation, MM = Missing Value Source: NWS Daily Summary

Daily Weather History Graph

Daily Weather History Graph

Search for Another Location

Airport or City:

Trip Planner

Search our weather history database for the weather conditions in past years. The results will help you decide how hot, cold, wet, or windy it might be!

Date:

Astronomy

Jan. 10, 2014 Rise Set
Actual Time 8:08 AM EST 5:33 PM EST
Civil Twilight 7:37 AM EST 6:04 PM EST
Nautical Twilight 7:03 AM EST 6:38 PM EST
Astronomical Twilight 6:30 AM EST 7:11 PM EST
Moon 1:38 PM EST (1/10) 3:14 AM EST (1/10)
Length of Visible Light 10h 26m
Length of Day
9h 25m
Waxing Gibbous, 75% of the Moon is Illuminated
Jan 10
Waxing Gibbous
Jan 15
Full
Jan 24
Last Quarter
Jan 30
New
Feb 6
First Quarter

Hourly Weather History & Observations

Time (EST) Temp. Windchill Dew Point Humidity Pressure Visibility Wind Dir Wind Speed Gust Speed Precip Events Conditions
12:15 AM 28.4 °F 23.3 °F 26.6 °F 93% 30.21 in 2.5 mi SSE 4.6 mph - N/A Snow Light Snow
12:35 AM 28.4 °F 23.3 °F 26.6 °F 93% 30.20 in 4.0 mi SSE 4.6 mph - N/A Snow Light Snow
12:55 AM 28.4 °F 24.6 °F 28.4 °F 100% 30.20 in 5.0 mi SSE 3.5 mph - N/A   Overcast
1:15 AM 28.4 °F 24.6 °F 28.4 °F 100% 30.19 in 4.0 mi SSE 3.5 mph - N/A   Overcast
1:35 AM 30.2 °F 26.7 °F 28.4 °F 93% 30.18 in 4.0 mi South 3.5 mph - N/A   Overcast
1:55 AM 30.2 °F 25.4 °F 28.4 °F 93% 30.18 in 4.0 mi South 4.6 mph - N/A   Overcast
2:15 AM 30.2 °F 25.4 °F 28.4 °F 93% 30.18 in 3.0 mi South 4.6 mph - N/A   Overcast
2:35 AM 30.2 °F 25.4 °F 28.4 °F 93% 30.18 in 4.0 mi South 4.6 mph - N/A   Overcast
2:55 AM 30.2 °F 25.4 °F 30.2 °F 100% 30.17 in 5.0 mi South 4.6 mph - N/A   Overcast
3:15 AM 30.2 °F 26.7 °F 30.2 °F 100% 30.17 in 5.0 mi South 3.5 mph - N/A   Overcast
3:35 AM 30.2 °F 26.7 °F 30.2 °F 100% 30.16 in 5.0 mi South 3.5 mph - 0.01 in   Overcast
3:55 AM 30.2 °F - 30.2 °F 100% 30.16 in 5.0 mi Calm Calm - 0.01 in   Overcast
4:15 AM 32.0 °F 28.7 °F 30.2 °F 93% 30.16 in 5.0 mi South 3.5 mph - N/A   Overcast
4:35 AM 32.0 °F - 30.2 °F 93% 30.15 in 5.0 mi Calm Calm - N/A   Overcast
4:55 AM 32.0 °F - 30.2 °F 93% 30.15 in 4.0 mi Calm Calm - N/A   Overcast
5:15 AM 32.0 °F 27.5 °F 32.0 °F 100% 30.14 in 3.0 mi South 4.6 mph - N/A   Overcast
5:35 AM 32.0 °F 28.7 °F 32.0 °F 100% 30.14 in 1.2 mi South 3.5 mph - N/A   Overcast
5:55 AM 32.0 °F - 32.0 °F 100% 30.13 in 1.0 mi Calm Calm - N/A   Overcast
6:15 AM 32.0 °F 27.5 °F 32.0 °F 100% 30.13 in 1.2 mi South 4.6 mph - N/A   Overcast
6:35 AM 32.0 °F - 32.0 °F 100% 30.13 in 1.5 mi Calm Calm - N/A   Overcast
6:55 AM 32.0 °F 28.7 °F 32.0 °F 100% 30.13 in 1.8 mi South 3.5 mph - N/A   Overcast
7:15 AM 32.0 °F 28.7 °F 32.0 °F 100% 30.13 in 1.8 mi South 3.5 mph - N/A   Overcast
7:35 AM 32.0 °F 27.5 °F 32.0 °F 100% 30.13 in 1.8 mi South 4.6 mph - N/A   Overcast
7:55 AM 32.0 °F 28.7 °F 32.0 °F 100% 30.13 in 1.5 mi South 3.5 mph - N/A   Overcast
8:15 AM 32.0 °F 28.7 °F 32.0 °F 100% 30.12 in 1.0 mi South 3.5 mph - N/A   Overcast
8:35 AM 32.0 °F 27.5 °F 32.0 °F 100% 30.13 in 0.8 mi South 4.6 mph - N/A   Overcast
8:55 AM 32.0 °F 28.7 °F 32.0 °F 100% 30.14 in 0.8 mi South 3.5 mph - N/A   Overcast
9:15 AM 32.0 °F - 32.0 °F 100% 30.12 in 0.5 mi Calm Calm - N/A Fog Fog
9:35 AM 32.0 °F 27.5 °F 32.0 °F 100% 30.13 in 0.2 mi South 4.6 mph - N/A Fog Fog
9:55 AM 32.0 °F 27.5 °F 32.0 °F 100% 30.12 in 0.5 mi South 4.6 mph - N/A Fog Fog
10:15 AM 32.0 °F 25.6 °F 32.0 °F 100% 30.12 in 1.2 mi South 6.9 mph - N/A   Overcast
10:35 AM 33.8 °F 29.6 °F 32.0 °F 93% 30.11 in 2.5 mi South 4.6 mph - N/A   Overcast
10:55 AM 33.8 °F 30.8 °F 33.8 °F 100% 30.11 in 2.5 mi South 3.5 mph - N/A   Overcast
11:15 AM 33.8 °F 28.6 °F 32.0 °F 93% 30.10 in 2.5 mi South 5.8 mph - N/A   Overcast
11:35 AM 33.8 °F 28.6 °F 32.0 °F 93% 30.07 in 2.5 mi SSE 5.8 mph - N/A   Overcast
11:55 AM 33.8 °F 27.7 °F 33.8 °F 100% 30.07 in 2.5 mi SSE 6.9 mph - N/A   Overcast
12:15 PM 33.8 °F 29.6 °F 33.8 °F 100% 30.06 in 2.0 mi South 4.6 mph - N/A   Overcast
12:35 PM 33.8 °F 28.6 °F 33.8 °F 100% 30.02 in 1.2 mi SSE 5.8 mph - N/A   Overcast
12:55 PM 35.6 °F 29.2 °F 33.8 °F 93% 30.00 in 4.0 mi SSE 8.1 mph - N/A   Overcast
1:15 PM 35.6 °F 29.2 °F 33.8 °F 93% 29.98 in 4.0 mi SSE 8.1 mph - N/A   Overcast
1:35 PM 35.6 °F 31.7 °F 33.8 °F 93% 29.97 in 4.0 mi SSE 4.6 mph - N/A   Overcast
1:55 PM 35.6 °F 29.2 °F 33.8 °F 93% 29.95 in 4.0 mi SSE 8.1 mph - N/A   Overcast
2:15 PM 35.6 °F 31.7 °F 33.8 °F 93% 29.94 in 4.0 mi SE 4.6 mph - N/A   Overcast
2:35 PM 35.6 °F 32.8 °F 33.8 °F 93% 29.94 in 5.0 mi SSE 3.5 mph - N/A   Overcast
2:55 PM 35.6 °F 29.9 °F 33.8 °F 93% 29.91 in 5.0 mi SE 6.9 mph - N/A   Overcast
3:15 PM 37.4 °F 30.8 °F 33.8 °F 87% 29.90 in 5.0 mi SE 9.2 mph 16.1 mph N/A   Overcast
3:35 PM 37.4 °F 29.8 °F 35.6 °F 93% 29.88 in 5.0 mi SE 11.5 mph 17.3 mph N/A   Overcast
3:55 PM 37.4 °F 32.1 °F 35.6 °F 93% 29.88 in 5.0 mi SSE 6.9 mph - N/A   Overcast
4:15 PM 37.4 °F 31.4 °F 35.6 °F 93% 29.88 in 5.0 mi SE 8.1 mph - N/A   Overcast
4:35 PM 37.4 °F 31.4 °F 35.6 °F 93% 29.87 in 5.0 mi SE 8.1 mph - N/A   Overcast
4:55 PM 37.4 °F 30.3 °F 35.6 °F 93% 29.85 in 5.0 mi SE 10.4 mph 16.1 mph N/A   Overcast
5:15 PM 37.4 °F 32.1 °F 35.6 °F 93% 29.84 in 5.0 mi SSE 6.9 mph - N/A Rain Light Rain
5:35 PM 37.4 °F 30.8 °F 35.6 °F 93% 29.84 in 4.0 mi SSE 9.2 mph - N/A Rain Rain
5:55 PM 37.4 °F 32.1 °F 37.4 °F 100% 29.83 in 4.0 mi SSE 6.9 mph - 0.01 in Rain Light Rain
6:15 PM 37.4 °F 32.1 °F 37.4 °F 100% 29.82 in 5.0 mi SSE 6.9 mph - 0.01 in Rain Light Rain
6:35 PM 37.4 °F 32.8 °F 37.4 °F 100% 29.82 in 4.0 mi South 5.8 mph - 0.03 in Rain Rain
6:55 PM 37.4 °F 34.9 °F 37.4 °F 100% 29.81 in 3.0 mi South 3.5 mph - 0.05 in Rain Rain
7:15 PM 37.4 °F 32.8 °F 37.4 °F 100% 29.81 in 3.0 mi SSE 5.8 mph - 0.02 in Rain Rain
7:35 PM 37.4 °F 33.8 °F 37.4 °F 100% 29.80 in 3.0 mi SSE 4.6 mph - 0.04 in Rain Rain
7:55 PM 37.4 °F 33.8 °F 37.4 °F 100% 29.79 in 3.0 mi SSE 4.6 mph - 0.06 in Rain Rain
8:15 PM 37.4 °F 32.8 °F 37.4 °F 100% 29.78 in 3.0 mi SSE 5.8 mph - 0.02 in Rain Rain
8:35 PM 39.2 °F 33.6 °F 39.2 °F 100% 29.75 in 5.0 mi SSE 8.1 mph - 0.04 in Rain Rain
8:55 PM 41.0 °F 35.8 °F 41.0 °F 100% 29.73 in 7.0 mi South 8.1 mph 16.1 mph 0.07 in Rain Rain
9:15 PM 41.0 °F 35.8 °F 41.0 °F 100% 29.73 in 7.0 mi South 8.1 mph - 0.03 in Rain Rain
9:35 PM 41.0 °F 35.2 °F 41.0 °F 100% 29.71 in 7.0 mi South 9.2 mph - 0.05 in Rain Rain
9:55 PM 41.0 °F 36.4 °F 41.0 °F 100% 29.69 in 7.0 mi SSE 6.9 mph 17.3 mph 0.07 in Rain Light Rain
10:15 PM 41.0 °F 35.2 °F 41.0 °F 100% 29.66 in 7.0 mi SSE 9.2 mph - 0.01 in Rain Light Rain
10:35 PM 41.0 °F 35.8 °F 41.0 °F 100% 29.64 in 7.0 mi SSE 8.1 mph - 0.02 in Rain Light Rain
10:55 PM 41.0 °F 35.2 °F 41.0 °F 100% 29.64 in 7.0 mi South 9.2 mph 21.9 mph 0.02 in Rain Light Rain
11:15 PM 41.0 °F 35.2 °F 41.0 °F 100% 29.65 in 5.0 mi South 9.2 mph - 0.01 in Rain Light Rain
11:35 PM 41.0 °F 35.8 °F 41.0 °F 100% 29.63 in 5.0 mi South 8.1 mph - 0.02 in Rain Light Rain
11:55 PM 41.0 °F 35.8 °F 41.0 °F 100% 29.63 in 5.0 mi South 8.1 mph - 0.03 in Rain Light Rain